Theta_e
331 332 332 332 332 332 330 330 329 330 330 329 330 329 328 327 328 328 328 328 328 328 327 328 329 329 328 328 328 328 328 328 328 328 329 328 329 327 322 324 324 325 328 330 331 333 335 335 334 335 335 335 335 335 335 335 335 335 336 335 336 336 336 337 338 339 338 337 336 336 336 335 335 337 338 337 337 336 336 336 335 335 333 333 333
331 331 331 331 331 332 331 330 329 329 330 329 329 328 328 328 329 329 328 328 327 327 327 327 328 329 329 328 328 328 328 328 328 328 329 329 329 329 321 322 323 324 326 328 329 332 333 335 336 335 335 336 336 335 335 335 335 336 335 334 334 334 333 334 336 337 339 339 338 338 337 336 336 336 336 337 338 337 337 337 337 336 335 335 334
331 331 331 331 331 331 331 331 331 332 332 331 332 331 330 329 329 329 328 327 327 327 326 326 328 328 329 328 329 329 328 328 328 329 328 329 330 331 331 320 322 323 325 327 329 331 332 334 335 336 336 336 336 335 335 334 334 334 334 334 334 334 334 334 335 335 336 337 340 339 338 338 337 337 337 337 337 337 337 337 337 336 336 336 335
333 333 333 331 331 330 331 331 331 331 332 332 331 332 331 331 331 331 330 328 327 327 328 326 326 327 328 328 329 329 328 329 329 329 328 329 330 331 332 331 320 321 323 325 327 329 331 332 334 335 336 337 336 334 335 334 334 334 334 334 335 333 334 334 334 335 335 335 336 338 340 339 338 338 337 337 337 338 338 337 337 337 337 337 337
333 333 332 332 331 330 330 330 331 331 331 332 332 332 331 330 330 331 329 329 327 327 328 326 325 326 327 327 328 329 330 329 328 328 329 330 330 331 332 332 332 321 320 322 323 326 329 331 333 334 335 336 335 335 336 335 335 335 334 334 335 335 334 334 334 335 335 336 335 335 337 339 340 339 338 338 337 338 338 338 338 338 337 338 338
334 333 333 332 331 331 330 330 330 331 331 331 330 330 329 328 328 328 324 326 325 326 325 325 325 326 327 327 328 329 329 329 328 329 329 330 330 331 331 331 331 332 331 320 319 322 326 328 330 332 333 334 334 334 335 335 335 335 335 335 335 336 335 334 335 335 336 336 337 337 337 337 337 337 339 339 338 338 338 338 338 338 338 337 338
334 333 333 332 331 330 330 330 330 330 329 330 329 329 329 328 328 326 326 325 325 325 325 324 324 325 326 327 327 327 329 328 329 329 329 331 331 332 331 331 331 331 331 331 323 320 322 325 328 330 331 332 332 332 333 333 334 334 334 335 335 335 335 335 335 336 336 336 336 336 337 337 337 337 337 337 338 339 338 338 338 338 338 338 337
334 334 332 332 331 330 330 330 331 330 329 329 328 327 328 328 328 328 326 325 325 325 325 324 325 326 326 326 327 327 328 329 329 329 330 330 331 331 331 331 331 331 326 330 330 328 322 323 325 328 328 329 330 330 331 332 332 333 333 334 334 334 334 334 334 334 334 335 335 336 336 336 336 336 336 337 337 337 338 338 338 337 338 338 338
333 333 332 332 332 331 331 331 331 330 329 328 327 327 327 327 327 327 327 325 325 325 325 325 326 326 327 327 327 327 327 329 329 329 331 330 331 331 331 331 330 321 329 328 329 329 324 319 323 325 325 325 326 328 329 330 331 331 332 333 333 333 333 334 334 334 334 334 334 334 334 335 336 336 337 337 337 337 337 338 338 338 338 338 338
333 333 332 332 332 332 332 331 331 330 329 328 327 328 327 326 325 326 326 326 325 325 325 325 326 326 326 326 326 326 327 329 330 328 329 329 330 330 331 331 330 330 329 330 329 329 329 323 319 321 322 321 322 324 327 329 330 330 331 332 332 333 333 333 333 333 334 334 334 334 335 334 334 335 335 335 336 336 337 337 337 338 338 338 338
332 332 331 331 331 332 331 331 331 329 328 328 327 327 326 325 325 325 326 326 325 326 326 326 326 326 325 325 326 326 327 328 329 329 329 330 330 328 331 330 330 330 329 329 329 329 329 329 329 329 327 317 319 321 324 326 327 329 330 331 331 331 332 332 332 332 332 332 332 332 333 333 333 333 333 333 334 334 334 334 335 336 337 338 338
332 332 331 330 330 330 331 331 330 329 328 326 326 326 325 325 325 325 325 325 325 325 326 325 324 324 322 324 325 326 326 327 329 329 329 329 329 329 328 329 329 329 329 329 329 329 329 329 325 328 329 324 317 320 320 323 323 325 328 329 331 331 331 331 332 332 332 332 332 332 332 332 333 332 333 333 333 334 334 334 334 334 334 335 337
331 332 331 328 330 331 330 330 330 329 328 327 327 327 327 327 325 325 324 324 324 325 324 324 320 320 322 323 325 328 327 328 328 329 329 329 329 328 328 328 328 329 329 329 328 329 329 329 328 329 328 329 327 318 317 321 319 322 325 328 330 331 331 331 332 332 332 332 331 331 331 331 332 333 333 333 333 333 333 333 333 333 334 334 335
330 330 330 330 329 329 330 329 329 328 328 328 327 325 326 326 325 324 325 323 323 325 325 323 318 317 319 321 324 328 329 329 328 327 328 328 328 328 328 327 327 328 328 328 328 328 328 328 328 328 329 329 328 329 328 326 323 319 323 325 328 329 330 331 331 331 331 330 331 331 331 331 331 332 333 333 333 333 333 333 333 334 334 334 334
333 330 330 329 329 329 329 329 329 328 326 326 326 326 326 325 325 323 323 323 324 326 324 323 321 323 322 319 318 319 323 321 323 323 324 326 328 327 327 326 327 328 327 327 327 328 328 328 328 328 328 328 328 328 328 325 326 324 324 324 325 328 329 330 331 331 330 330 330 330 330 330 330 331 332 332 332 332 332 332 333 333 334 334 334
333 331 330 330 330 329 330 330 329 328 327 326 326 326 326 326 325 325 326 322 320 321 324 324 324 323 317 318 319 317 315 321 320 325 326 324 324 324 325 325 326 327 326 326 327 328 328 328 328 328 328 328 328 328 328 328 327 325 324 323 322 325 327 329 330 330 330 329 329 330 330 330 331 331 332 332 333 333 332 333 333 333 333 333 334
334 333 330 330 331 331 330 330 329 328 328 327 326 326 327 327 327 325 324 324 324 322 322 323 324 327 323 318 316 315 316 321 321 323 321 320 322 323 324 325 325 324 325 326 327 327 327 327 328 328 328 328 328 328 328 328 328 326 326 323 324 325 327 329 330 330 330 329 329 330 330 330 331 331 332 332 333 333 333 333 333 334 334 334 334
335 334 332 330 331 331 331 330 330 329 328 328 328 328 327 327 327 327 326 326 326 325 324 322 324 326 327 326 324 321 322 322 319 316 320 325 327 325 325 324 324 325 326 326 327 326 326 326 327 327 328 328 328 328 328 328 327 327 327 329 326 327 328 329 330 330 330 330 330 330 330 330 331 331 332 332 332 332 333 333 333 333 333 333 333
335 335 334 332 331 331 331 331 331 330 329 328 328 328 328 328 328 327 327 326 326 323 323 324 321 323 325 325 325 326 326 322 318 322 319 323 322 322 322 324 325 326 327 326 327 326 326 327 327 327 328 328 328 328 328 328 326 326 326 326 326 327 329 330 331 331 332 332 332 331 331 331 331 331 331 332 332 332 332 332 332 332 332 333 333
337 336 335 333 331 332 332 331 331 331 330 328 328 329 329 329 328 328 327 327 326 324 323 324 319 319 322 323 323 324 325 324 324 321 320 318 320 323 325 325 326 327 326 326 325 326 326 327 327 327 327 328 328 328 328 328 329 329 328 325 326 327 328 329 330 331 332 333 333 333 332 332 332 331 331 331 331 331 331 331 332 332 332 332 332
337 337 337 336 332 332 332 332 331 331 330 330 330 329 329 329 328 327 326 326 326 326 325 324 323 321 320 320 322 321 322 323 323 323 318 317 317 320 321 325 324 324 324 325 326 326 326 327 327 327 327 327 328 328 328 328 328 329 326 325 325 326 327 329 330 331 332 332 333 332 332 332 331 331 331 331 331 331 331 331 331 332 332 332 332
336 336 336 336 335 333 332 332 332 331 329 331 330 329 329 329 329 328 327 325 326 326 324 325 326 325 324 322 319 319 320 320 320 320 320 319 316 318 321 320 319 323 325 324 325 325 326 327 327 327 327 327 328 328 329 328 328 329 326 318 320 322 324 326 329 330 331 332 332 332 332 332 332 332 332 332 331 331 331 331 331 332 332 332 332
333 334 335 335 335 334 333 333 333 331 330 331 331 330 330 329 329 330 327 326 326 326 324 325 325 325 325 323 322 321 319 318 318 319 318 317 316 315 317 318 318 318 323 325 324 325 325 326 326 326 327 328 328 328 328 329 320 321 312 310 313 316 320 324 328 330 332 333 333 333 333 333 333 332 331 331 331 331 331 331 331 331 332 331 331
332 332 333 334 334 334 333 333 332 332 332 332 332 332 331 331 330 329 328 327 327 325 325 324 324 324 325 325 324 324 323 322 323 322 319 319 318 317 318 319 319 319 322 323 325 324 325 325 326 326 327 327 328 328 328 329 326 312 315 314 312 316 321 326 329 331 332 333 333 332 332 332 332 331 331 331 331 330 330 330 330 330 330 330 330
330 330 331 332 333 332 332 332 331 332 332 332 332 332 331 330 329 329 329 328 326 325 324 324 324 323 324 326 325 325 324 326 326 324 322 322 320 317 319 320 316 318 321 321 321 324 326 326 326 327 327 327 328 328 328 329 328 317 305 316 310 311 315 320 324 327 330 331 332 332 331 331 331 330 329 329 329 329 329 329 329 329 329 328 328
329 329 330 331 331 332 332 332 332 332 332 332 332 332 331 330 329 329 328 328 327 327 326 326 325 325 326 325 325 325 325 326 326 325 322 320 318 317 317 318 318 317 319 319 321 320 323 326 327 328 327 327 327 328 328 328 328 314 305 316 320 312 313 317 321 325 328 330 330 330 330 330 330 329 329 329 328 328 328 328 328 327 327 327 327
330 331 331 330 330 331 331 331 331 331 331 331 331 331 331 330 329 329 328 328 327 326 326 326 324 324 325 325 325 325 325 326 325 325 324 322 321 320 318 315 315 317 315 318 320 320 321 325 326 326 327 327 328 328 328 328 321 315 307 325 328 315 313 317 319 322 325 326 327 327 328 328 329 329 328 328 329 328 327 326 326 326 326 326 327
331 332 331 331 331 331 330 330 331 331 331 331 330 330 330 329 329 328 327 328 327 326 326 326 325 325 325 325 325 324 326 326 326 325 325 324 323 322 320 317 314 312 316 316 318 319 323 322 325 327 327 327 328 328 321 324 328 312 306 325 327 324 315 313 316 319 321 322 323 325 326 327 328 328 328 328 327 327 326 326 326 326 326 326 327
331 331 331 330 330 331 330 330 330 330 330 330 329 329 329 328 327 327 326 327 326 326 326 326 325 325 325 324 324 325 325 326 325 325 325 325 324 323 322 319 317 314 313 314 317 318 322 322 321 325 327 327 327 328 327 327 321 321 328 328 327 327 319 314 315 316 316 317 320 322 324 326 327 327 327 327 326 326 326 325 325 325 325 325 324
330 330 330 330 330 326 329 330 330 330 330 330 329 328 328 327 327 327 327 327 326 325 326 326 325 325 324 324 324 324 325 325 324 325 325 324 324 323 322 322 321 316 315 313 315 320 320 323 323 322 325 327 327 328 328 327 315 321 326 327 326 326 315 310 310 311 312 314 316 319 322 324 325 325 325 325 325 324 324 323 323 323 322 322 321
329 329 329 328 328 328 328 328 328 329 330 329 329 328 327 326 326 326 326 326 325 325 325 325 325 325 324 323 324 324 324 324 325 325 325 324 324 324 323 322 321 320 318 317 312 318 323 320 323 325 324 325 327 326 328 327 320 320 324 326 326 315 307 315 308 308 311 315 317 317 319 321 322 323 323 323 322 322 322 322 321 321 320 318 316
330 330 327 326 326 326 327 327 327 328 329 329 328 328 327 326 325 325 326 326 325 324 324 325 324 324 324 323 323 323 324 324 323 324 324 324 324 323 323 322 322 321 320 318 315 315 322 322 322 324 326 325 325 324 325 327 325 308 325 326 327 310 319 323 309 304 307 311 311 310 312 313 316 318 319 319 320 320 320 319 318 318 315 312 311
328 327 327 327 327 327 326 325 325 326 328 328 328 327 326 325 325 325 325 325 324 324 324 324 324 324 323 323 323 324 324 323 323 323 323 323 323 323 323 322 321 321 320 318 315 316 320 323 322 322 324 325 324 326 325 326 326 323 316 325 326 325 324 325 325 307 305 306 308 311 311 310 310 312 313 314 315 315 316 315 313 312 309 308 309
329 328 327 327 327 327 326 326 326 326 327 327 327 327 325 325 324 325 324 324 323 323 323 322 323 323 323 322 322 323 324 323 323 323 323 322 322 322 322 321 321 321 322 319 317 316 315 320 320 322 321 324 321 325 324 324 325 326 324 325 325 325 324 324 324 324 304 306 306 309 309 307 307 307 307 307 309 309 309 308 306 306 306 306 307
328 328 328 327 327 326 326 326 326 326 326 326 326 326 325 325 324 324 324 323 323 322 322 322 322 323 322 321 322 322 323 322 322 322 323 322 322 321 321 321 320 321 321 321 319 316 316 317 320 319 320 323 322 323 325 326 325 326 324 324 324 325 323 324 323 324 303 303 305 306 307 306 306 306 305 305 305 305 305 304 304 304 305 305 305
328 328 328 328 327 327 326 326 326 326 326 326 326 326 325 325 324 324 324 323 323 323 322 322 322 322 321 321 321 322 322 321 321 321 322 322 321 320 320 321 321 320 321 321 321 319 318 316 318 319 320 320 321 324 326 326 324 324 324 323 324 323 323 323 322 322 308 302 303 304 304 304 304 304 304 304 304 303 303 302 302 302 303 304 304
327 327 328 327 327 327 327 326 326 325 325 325 325 325 325 325 325 324 324 323 323 322 322 322 315 322 322 321 322 322 322 320 320 320 321 320 321 320 319 320 320 320 320 321 320 320 318 315 317 320 320 320 322 323 323 322 322 322 321 321 322 322 322 322 321 316 303 300 302 302 302 302 302 302 302 302 302 302 301 301 300 300 301 302 302
324 326 327 327 326 326 326 326 326 325 326 325 325 325 325 324 324 324 324 323 323 322 322 322 322 322 322 322 322 322 321 320 319 320 320 320 320 319 319 319 320 320 318 318 319 317 317 316 316 316 319 318 319 320 321 321 319 318 319 320 318 318 319 319 317 316 317 316 315 311 303 303 300 300 301 301 301 300 300 299 299 298 299 300 301
318 321 324 325 325 325 325 325 325 325 325 325 325 325 325 324 323 323 323 323 323 322 322 322 322 323 322 322 322 322 321 320 320 319 320 320 319 319 319 319 320 318 316 316 315 315 315 315 315 315 316 318 318 316 318 317 317 317 316 316 316 318 315 316 316 314 314 311 301 298 301 301 299 300 300 300 299 299 299 298 298 297 298 299 300
313 316 319 322 323 323 323 324 324 324 324 324 324 324 324 324 323 323 323 322 322 322 322 322 322 322 322 322 322 322 322 321 321 320 320 320 320 318 319 319 319 316 315 314 314 314 314 313 313 312 312 313 311 313 310 309 310 308 306 310 312 314 314 309 308 309 310 310 310 309 301 300 299 299 299 299 299 298 298 299 296 296 298 299 300
308 311 315 318 320 321 320 320 322 322 323 322 323 323 323 323 323 322 322 321 321 321 321 320 321 321 321 321 321 322 320 308 306 309 310 310 320 318 318 318 317 315 314 314 313 312 312 311 311 311 309 308 310 311 309 308 306 311 313 310 311 314 309 305 302 302 303 304 307 308 306 306 307 306 307 305 302 301 300 298 297 296 298 299 299
304 307 310 313 316 318 318 318 318 320 320 321 311 306 309 320 322 321 321 321 320 320 319 318 318 318 319 320 320 305 303 301 301 301 303 303 304 314 319 318 316 315 314 313 312 311 311 309 310 309 307 306 308 308 309 310 312 310 306 306 307 309 305 307 303 300 301 303 306 306 304 304 305 304 303 302 302 302 302 301 298 298 297 298 298
302 304 305 308 311 314 316 316 315 316 317 317 306 304 305 306 316 320 319 319 319 318 317 316 316 314 315 317 319 307 301 298 302 299 301 300 300 302 303 305 306 316 314 313 312 311 310 310 310 308 308 308 309 311 311 313 311 310 309 307 308 303 303 303 304 299 298 301 303 305 304 302 303 301 299 299 300 300 301 299 297 296 297 297 297
300 302 303 304 307 309 312 313 314 314 315 305 304 303 303 303 304 316 319 318 317 317 316 315 315 313 312 312 313 313 311 311 311 306 300 297 298 299 300 300 300 302 305 313 313 311 310 309 308 308 308 309 310 310 308 307 306 306 308 306 305 304 304 304 306 305 298 299 301 303 303 300 301 299 297 297 298 298 297 296 296 296 296 296 296
299 300 301 302 304 306 308 309 310 311 312 304 302 301 301 301 301 306 317 316 316 315 314 313 313 312 311 309 309 309 310 297 304 308 305 302 294 294 295 294 295 296 298 299 301 312 314 310 310 309 308 309 309 310 312 310 311 305 303 302 305 306 306 305 303 298 295 298 299 300 300 299 299 297 296 296 297 297 296 295 295 295 295 295 295
298 298 299 300 302 304 306 307 308 310 310 302 300 299 299 298 299 301 312 314 313 313 312 311 310 309 308 307 307 306 305 301 305 306 306 305 302 302 301 303 303 295 293 295 295 294 300 311 312 311 312 313 311 311 310 308 307 307 305 304 305 302 302 300 294 294 292 296 298 298 296 295 295 296 294 294 295 294 294 294 294 294 294 294 294
295 296 297 298 300 301 303 304 306 307 309 300 298 298 298 298 298 298 309 310 309 309 309 307 307 306 306 306 307 306 303 301 304 304 305 304 303 303 302 301 298 297 298 298 298 299 301 304 307 309 305 303 304 303 302 305 307 307 306 304 302 300 294 291 292 292 292 294 296 295 295 292 294 294 293 293 293 293 293 293 293 293 293 293 293
296 297 297 298 298 299 301 302 303 304 306 298 296 296 296 297 297 301 306 306 305 304 304 303 303 304 304 304 304 305 303 302 296 296 299 304 303 301 300 298 295 294 292 290 291 293 296 297 299 299 298 298 296 300 300 302 299 295 293 293 293 291 291 292 291 291 291 293 295 294 294 292 292 292 291 293 293 291 292 292 292 292 292 292 292
294 295 296 298 299 300 300 301 301 302 304 297 293 294 295 296 297 302 303 304 303 303 302 302 302 302 302 303 304 304 303 303 295 295 297 297 303 301 300 297 295 293 291 291 291 291 291 292 293 293 293 294 294 294 294 295 296 296 295 293 291 292 293 292 290 290 291 292 292 293 293 291 290 290 291 291 291 291 291 291 292 291 291 291 291
293 294 295 296 298 299 299 299 300 301 302 296 291 293 294 295 296 302 302 303 302 302 301 300 300 300 300 293 296 303 302 302 294 294 295 297 301 300 300 296 293 293 290 290 290 289 289 289 289 290 291 291 291 292 292 293 293 294 294 296 292 293 293 294 293 291 291 290 290 292 288 290 289 291 289 289 289 288 290 291 291 291 291 291 290
293 294 294 295 296 298 298 298 292 295 299 295 289 292 293 294 296 302 302 303 301 300 299 297 297 298 298 292 291 296 299 298 294 294 294 296 301 300 300 297 294 294 292 290 289 289 289 289 289 289 289 288 289 289 288 288 288 289 294 296 295 295 295 294 291 289 287 288 290 292 289 289 288 290 290 288 288 288 289 289 291 290 291 291 291
Wind_Speed
10 9 8 9 8 8 8 7 7 7 7 7 7 7 7 6 6 7 7 7 7 7 7 7 6 7 7 8 7 7 7 7 7 7 7 7 7 7 11 12 14 14 14 14 14 15 15 15 16 16 16 16 16 16 16 17 17 17 17 17 17 18 18 18 16 14 15 16 17 17 17 17 16 15 16 18 19 18 18 18 18 18 18 18 18
9 9 9 9 9 9 9 8 7 7 7 8 7 7 7 7 7 7 7 7 7 6 6 6 7 7 6 7 7 7 7 7 7 7 7 7 7 7 12 12 14 15 15 15 15 15 16 16 16 17 17 17 17 17 17 18 18 18 18 18 18 18 18 18 19 17 14 15 16 17 17 17 17 17 16 18 20 20 20 19 18 18 19 19 19
9 10 9 9 9 8 9 8 8 8 8 8 7 8 7 7 7 7 7 7 7 6 6 7 7 7 7 7 7 7 7 7 8 8 8 7 7 7 6 13 14 16 16 16 16 16 17 17 17 17 17 17 17 17 18 18 19 19 19 19 19 19 19 19 19 19 19 17 15 17 17 17 17 18 17 17 18 20 20 20 21 20 19 19 19
9 9 9 9 9 9 9 9 8 8 8 9 9 8 9 8 9 9 9 8 7 7 7 7 7 7 7 7 7 8 7 8 8 8 8 8 7 7 7 6 14 15 16 17 17 18 18 18 18 18 18 18 18 19 19 19 19 19 20 19 19 20 20 21 20 20 19 19 19 17 15 17 18 18 18 18 18 19 20 20 20 20 20 19 19
10 10 10 10 9 9 9 9 8 8 8 9 10 9 9 9 9 9 9 9 9 9 8 8 8 8 8 8 7 8 8 8 8 8 8 7 8 8 7 6 6 13 16 16 17 18 18 18 18 18 19 19 20 19 19 20 20 21 21 21 20 20 22 21 20 18 18 18 19 19 18 16 15 17 19 19 19 19 19 20 21 20 20 20 19
10 10 10 9 9 10 10 9 9 10 9 9 9 9 9 9 9 8 8 9 9 9 8 8 7 7 8 8 8 9 9 8 8 8 8 8 7 7 8 6 6 6 7 15 17 16 18 18 18 19 19 19 20 20 20 20 21 21 21 21 22 21 22 22 19 18 17 17 17 17 18 18 18 17 16 17 18 19 20 19 20 21 21 21 20
12 10 11 10 10 9 9 9 9 9 9 9 9 9 9 9 8 9 9 8 9 8 9 9 8 8 8 8 10 9 8 9 9 9 9 9 9 8 7 7 7 6 7 6 11 16 16 18 18 19 19 19 20 20 20 20 20 21 20 21 21 22 21 21 20 18 16 16 17 17 16 16 16 16 16 17 16 18 19 20 20 20 21 21 21
13 12 10 10 10 10 9 9 10 9 9 9 9 9 9 9 9 9 9 10 8 9 8 9 8 9 10 9 8 8 8 8 10 9 8 9 9 8 7 7 7 7 7 7 7 7 14 16 17 18 18 18 19 19 19 19 19 19 20 20 21 20 20 20 20 19 18 18 19 18 17 17 17 17 17 17 17 17 18 19 20 20 20 20 21
13 13 11 11 10 10 9 9 10 9 9 9 9 8 9 9 9 10 10 9 9 9 9 8 9 10 9 9 9 9 9 9 10 8 8 10 10 8 8 8 7 8 7 8 7 7 8 14 14 16 17 16 16 18 18 18 17 18 18 18 19 19 19 19 19 18 18 18 17 16 16 16 15 16 16 16 17 17 17 17 18 19 19 19 19
14 13 12 11 11 11 10 11 10 10 10 9 9 8 9 9 9 9 9 10 9 8 8 8 8 8 8 9 9 9 9 9 10 9 9 9 9 8 7 6 6 6 6 6 6 6 5 8 13 12 13 13 14 16 17 17 17 17 17 17 18 18 18 18 18 17 16 16 16 16 15 15 16 16 16 15 15 15 15 16 16 17 18 19 19
13 13 12 11 11 11 11 12 11 10 10 10 10 9 9 9 9 8 9 10 9 9 8 8 8 8 9 9 9 10 10 10 10 9 9 9 8 8 6 7 7 6 6 5 5 5 5 5 4 4 7 14 14 14 15 16 16 16 16 17 16 16 16 16 16 17 16 15 16 16 15 16 17 17 17 18 18 18 18 18 19 18 18 17 18
14 14 14 13 12 12 12 10 11 10 11 11 10 10 11 11 11 10 10 9 8 8 8 7 8 9 9 9 11 12 13 12 12 10 9 8 7 6 6 5 5 5 5 4 4 4 5 4 4 4 4 6 12 12 12 14 13 14 15 16 16 16 15 16 16 16 16 15 16 16 16 16 16 16 16 16 16 17 17 18 18 19 19 19 18
13 13 14 12 12 11 12 12 11 11 11 11 11 11 11 11 10 9 10 10 8 8 8 7 7 7 7 10 11 11 11 12 12 10 8 7 6 5 4 4 4 4 3 3 4 4 4 4 4 4 4 3 5 11 12 12 12 13 15 15 15 15 15 15 15 15 15 15 14 14 14 15 15 15 16 16 17 17 17 17 18 18 18 19 18
12 15 12 13 12 11 12 11 11 11 10 10 11 10 11 10 9 8 9 10 9 8 7 6 5 6 6 8 6 7 7 7 8 8 7 6 5 4 3 4 3 3 2 3 4 4 4 4 4 4 4 4 4 3 5 7 9 13 13 13 13 14 14 14 14 14 13 13 13 13 14 14 14 14 14 15 15 15 15 15 15 16 16 17 17
14 12 13 13 14 12 11 10 12 10 9 11 10 11 10 11 11 8 7 8 8 8 9 9 6 5 5 6 6 3 4 4 4 6 6 5 4 4 4 4 4 3 3 3 3 4 4 4 4 4 4 5 4 4 5 5 5 4 7 10 11 12 13 13 13 12 12 11 12 12 13 13 13 13 14 14 14 14 14 14 14 13 14 14 14
14 12 12 12 13 13 11 11 11 11 11 11 11 11 11 11 11 11 10 8 8 7 9 10 8 7 6 7 2 1 5 4 2 3 2 3 5 5 5 5 4 4 3 3 3 3 3 4 4 5 5 5 5 5 5 5 4 5 9 10 11 12 13 13 12 11 10 10 11 11 12 13 13 13 14 14 14 14 14 14 15 15 16 16 16
12 13 12 12 13 13 13 12 12 11 10 11 11 12 12 12 12 11 12 11 9 7 9 10 11 11 9 3 3 4 5 2 3 2 3 5 4 5 6 5 5 5 4 3 4 4 4 4 4 5 6 6 5 5 5 5 5 5 6 8 11 12 12 12 11 10 10 10 10 11 11 12 12 12 13 13 14 14 14 14 14 14 14 14 15
10 13 13 12 13 14 13 12 12 11 10 10 11 11 12 12 13 12 13 13 11 11 9 9 11 13 15 12 7 6 4 1 1 1 5 4 2 4 6 7 6 5 4 4 5 4 4 4 5 5 6 6 6 5 5 5 5 5 5 4 7 9 10 11 10 9 10 10 10 10 10 11 11 12 13 13 13 13 13 12 12 12 12 13 13
11 12 12 12 12 12 13 13 12 12 10 11 11 12 12 13 11 13 12 11 12 13 13 9 8 11 13 14 13 11 8 6 5 3 5 4 3 4 5 6 6 6 6 5 5 5 4 5 5 6 6 6 6 5 5 5 6 7 7 9 9 10 10 11 10 10 11 10 10 10 10 10 11 11 12 12 13 13 13 13 13 12 12 12 12
10 10 10 12 11 11 12 12 13 13 10 11 13 12 11 10 11 13 12 11 11 13 13 12 9 7 9 12 13 13 13 12 11 8 6 5 3 4 5 7 7 6 6 5 6 6 6 5 5 5 5 6 5 5 5 5 5 5 5 8 8 9 9 10 9 10 10 10 10 10 10 10 10 11 11 11 12 12 13 12 12 12 12 12 12
11 10 12 11 11 10 12 13 13 13 11 13 14 14 15 14 13 14 14 13 13 13 12 12 10 8 8 11 11 11 11 11 11 11 10 8 9 7 6 5 4 6 5 6 7 6 6 6 5 6 6 6 5 5 5 5 5 4 5 5 7 8 9 10 10 9 10 10 10 10 10 10 11 11 11 11 11 11 11 11 12 12 11 11 11
11 11 13 15 12 13 11 14 15 13 11 14 14 15 15 15 17 15 14 14 12 12 15 12 11 11 10 9 10 10 10 10 11 11 11 12 10 6 4 6 7 5 5 5 7 7 6 6 6 7 6 6 5 5 5 5 5 4 4 4 5 7 8 9 10 10 10 11 11 11 11 11 12 12 11 11 11 11 10 10 10 10 10 11 11
14 14 18 17 15 12 13 14 13 11 12 14 15 15 14 15 14 13 15 16 13 14 13 13 12 12 12 11 11 12 12 11 11 11 11 9 9 11 10 10 11 11 7 6 6 7 7 7 6 7 6 6 5 5 5 5 4 5 8 8 7 7 8 9 10 11 11 11 11 10 10 11 11 11 10 10 11 11 11 11 11 11 11 12 12
13 13 13 17 16 16 15 14 13 15 17 15 16 14 14 13 12 12 13 14 14 13 14 14 16 13 13 12 12 11 11 11 10 10 12 11 10 10 9 7 8 9 7 7 8 8 8 8 8 7 6 6 6 5 4 4 5 7 6 8 8 8 9 10 10 11 11 11 11 11 10 10 10 8 8 9 9 10 10 11 12 13 14 14 14
14 15 16 15 12 15 16 14 13 14 15 14 14 14 13 12 12 14 13 13 15 15 13 15 15 15 12 12 11 11 12 11 10 11 10 10 11 11 10 8 8 7 7 7 6 5 5 6 7 7 7 7 6 5 5 4 4 4 6 6 8 9 9 9 10 11 11 11 10 9 9 10 9 8 9 8 8 8 8 8 8 9 10 10 10
14 15 12 9 12 14 14 15 15 15 15 15 14 13 14 14 14 14 13 14 14 16 17 15 15 16 12 12 13 13 12 11 11 11 11 11 11 12 9 8 9 9 7 7 8 7 6 6 6 6 7 7 6 6 6 5 4 5 9 4 6 8 9 8 9 10 10 10 9 8 8 8 8 8 7 6 6 6 6 6 7 7 8 8 9
11 11 13 14 14 14 14 15 15 16 14 13 11 12 11 12 11 13 13 13 14 12 16 17 16 17 17 15 13 13 12 12 11 12 11 12 11 10 9 8 8 8 8 8 8 11 9 4 6 6 7 7 6 6 6 6 4 3 5 4 4 6 7 7 8 8 8 8 8 8 8 7 7 7 7 6 4 4 5 6 7 8 9 9 9
10 10 10 11 13 13 14 16 16 16 14 14 14 11 12 13 13 11 14 10 13 15 15 15 15 18 17 16 14 15 13 12 12 12 12 12 11 10 11 10 9 8 6 8 7 8 9 8 6 7 7 7 6 6 6 3 4 5 6 4 4 4 5 6 6 6 7 8 8 8 8 7 7 7 7 8 7 6 6 7 7 8 9 10 10
10 9 11 11 12 13 13 15 16 16 16 15 14 15 14 13 15 15 16 14 13 16 14 14 16 16 15 18 16 13 14 12 12 12 12 11 10 11 11 10 9 9 7 6 6 5 5 8 5 6 7 6 6 7 6 6 5 5 4 3 3 4 5 6 5 5 5 7 8 7 7 6 6 7 7 8 8 8 8 8 8 8 9 10 10
9 9 9 10 10 12 13 16 15 15 16 16 15 15 14 14 16 15 15 14 15 14 13 13 15 14 14 14 15 14 13 12 14 13 13 13 9 11 11 11 9 10 9 9 7 4 3 6 5 3 6 7 6 5 5 7 7 6 4 4 4 5 5 6 6 6 5 6 7 6 6 6 6 7 8 7 8 8 8 8 9 9 10 10 10
9 9 9 9 9 9 11 15 15 15 16 16 16 15 15 15 14 14 15 15 14 15 15 15 14 14 15 16 15 14 14 15 14 13 13 13 13 11 11 11 11 11 11 9 9 7 6 5 5 5 4 8 6 6 4 6 5 5 4 5 5 5 5 6 9 7 5 5 5 5 5 6 8 7 7 7 7 7 7 7 7 7 8 8 7
11 10 10 10 10 10 12 12 12 16 16 16 15 15 15 16 15 14 14 16 16 16 15 14 12 14 15 16 15 15 14 13 13 12 11 10 11 12 12 11 11 11 11 9 11 12 7 7 7 6 6 6 8 8 8 6 3 7 5 5 4 1 4 5 7 7 5 6 3 2 6 6 7 7 7 6 7 7 6 6 5 6 6 5 5
11 11 12 12 12 12 11 12 12 14 15 15 14 15 15 17 16 15 15 16 17 15 14 16 14 14 15 16 15 13 13 13 12 11 10 10 11 12 10 11 10 10 10 9 11 11 12 9 8 8 8 8 9 8 8 7 5 5 6 5 4 4 3 4 3 6 5 6 2 6 5 5 6 7 7 7 7 7 6 6 7 6 6 5 6
11 13 12 11 9 11 11 12 14 14 14 15 15 15 16 17 17 13 14 16 16 16 15 15 15 14 15 16 15 13 13 14 12 11 11 10 10 10 9 9 9 10 9 10 12 9 10 9 11 10 10 8 10 7 8 8 7 5 6 5 4 4 3 3 4 2 5 1 5 5 6 6 6 6 5 6 6 6 7 7 7 7 6 6 6
10 11 12 11 11 11 13 16 16 14 14 13 13 16 16 17 17 15 15 16 16 16 16 16 16 15 15 14 16 14 11 13 13 12 11 13 11 11 11 9 10 10 10 10 9 10 11 11 11 12 9 7 9 9 8 8 7 5 6 5 5 3 2 3 3 2 6 4 6 8 8 8 7 6 6 6 7 7 8 8 8 7 7 7 7
12 11 12 12 12 11 13 14 17 14 13 12 13 17 19 17 16 17 16 16 16 16 17 16 16 16 15 15 16 15 13 12 13 11 10 10 11 10 11 10 10 11 10 9 10 10 8 8 7 11 10 9 8 7 6 5 6 6 6 4 4 4 4 4 4 3 5 6 7 9 10 8 8 7 8 8 8 9 8 8 8 8 7 7 7
13 12 11 11 13 15 16 19 18 17 13 14 17 19 16 16 17 16 16 16 15 16 17 17 16 16 16 15 15 15 14 14 13 13 11 13 11 10 10 9 9 10 9 9 10 9 10 11 10 10 10 10 7 5 4 5 6 5 3 4 5 4 4 3 3 3 5 8 9 10 10 9 9 9 9 9 9 8 8 7 7 7 7 7 6
14 13 13 11 10 12 15 16 16 17 17 17 19 19 18 17 16 16 15 15 15 16 16 16 16 15 15 16 15 16 16 14 13 11 12 14 12 11 11 10 10 9 8 8 8 7 8 9 8 8 6 10 8 6 3 4 4 6 7 5 4 3 3 4 4 2 1 2 4 5 8 10 11 10 10 9 8 8 7 8 8 7 7 7 7
14 14 13 13 11 10 13 16 16 17 17 17 17 16 17 17 17 17 16 16 15 14 15 15 16 16 15 14 14 15 14 13 13 12 12 12 11 12 11 10 10 9 8 8 8 10 11 12 10 9 7 6 6 8 4 1 3 5 6 6 7 3 2 3 5 3 1 3 5 5 6 8 8 8 10 9 8 7 8 9 8 8 7 7 8
14 15 15 13 12 11 13 13 15 15 15 16 16 17 17 16 16 17 17 15 16 15 14 13 14 16 16 16 15 15 14 14 12 12 12 12 10 11 10 10 10 9 9 8 8 9 8 8 8 8 8 6 3 4 1 1 3 2 2 4 6 6 5 2 2 2 1 1 2 3 7 10 10 11 11 9 8 6 5 7 8 8 7 8 8
12 13 15 15 14 13 12 12 13 11 11 14 14 14 16 17 16 16 17 14 14 12 12 11 12 12 12 12 12 12 13 14 16 14 13 12 10 10 10 10 10 9 9 8 8 8 8 8 7 5 5 6 6 6 6 5 6 7 5 6 7 6 3 3 2 2 1 0 1 2 3 3 3 3 2 3 4 2 6 5 5 7 8 8 9
13 12 13 15 14 13 14 13 12 12 11 10 13 17 15 13 15 13 13 13 13 12 11 11 11 11 12 11 12 15 15 15 15 15 15 14 13 12 11 10 9 9 8 8 9 8 8 8 9 7 7 8 7 7 8 6 7 3 3 5 6 5 3 4 2 1 1 1 1 2 3 2 1 2 2 2 3 3 3 5 5 5 8 10 10
12 13 12 14 15 14 13 12 13 12 12 13 17 16 18 18 14 13 12 11 11 11 11 12 12 11 11 11 10 12 13 12 14 16 15 14 14 13 11 9 9 10 10 10 9 8 9 9 7 6 8 8 7 7 8 8 5 8 7 7 7 5 5 5 5 2 1 1 2 1 4 3 1 3 3 3 3 3 4 5 6 8 10 10 10
10 10 12 13 13 13 12 13 13 12 13 14 15 16 18 20 17 14 12 11 10 11 11 12 11 10 10 9 8 7 8 10 9 10 11 12 13 14 14 13 12 14 13 11 11 10 8 8 7 8 8 8 7 6 6 5 6 5 6 5 7 7 6 5 7 5 3 1 1 1 3 4 3 3 4 3 4 5 6 7 9 10 10 11 11
10 10 11 12 14 13 12 12 13 13 12 15 15 16 17 17 18 14 10 10 11 11 12 11 10 10 9 8 8 6 6 10 8 7 7 7 6 10 9 9 7 7 9 10 8 8 7 9 11 9 8 7 8 9 8 7 6 7 6 5 6 6 5 6 4 3 2 1 1 1 2 3 2 3 4 4 4 4 5 8 10 9 11 11 11
10 10 10 12 13 13 12 12 12 12 13 13 15 16 15 16 17 15 11 10 10 11 11 11 10 10 9 10 9 10 6 7 7 8 7 7 7 6 5 4 3 2 2 3 5 4 3 6 7 10 8 7 7 6 5 5 8 8 8 8 7 6 6 3 4 4 2 1 1 2 2 3 2 3 4 4 4 4 5 8 9 11 11 11 11
12 13 13 13 11 11 12 12 12 12 12 14 14 16 16 17 16 14 9 8 8 10 10 9 10 10 9 9 9 10 8 9 9 9 9 8 8 7 6 6 5 5 4 4 3 3 4 4 5 5 2 2 2 4 5 5 4 3 4 5 7 5 7 5 5 4 3 3 1 2 3 4 1 4 4 5 4 4 3 7 11 11 11 11 11
11 10 9 9 11 13 13 12 12 13 13 11 13 15 15 15 15 11 9 8 9 9 8 8 8 8 7 8 8 9 9 9 10 13 12 9 9 9 9 7 6 4 3 1 1 1 2 2 3 3 3 4 4 4 5 6 6 6 8 7 7 6 6 3 2 2 2 2 1 2 3 3 2 4 5 4 4 4 3 4 9 10 10 10 10
13 13 13 11 11 12 13 12 13 12 13 10 12 14 14 15 13 10 9 7 7 8 9 8 8 8 9 10 10 10 10 9 11 14 14 14 9 9 8 8 6 6 4 4 5 5 6 8 9 10 10 10 10 9 8 7 7 8 6 5 4 5 5 4 2 2 3 4 1 2 3 4 3 5 5 5 4 4 4 4 4 7 8 10 10
15 14 13 14 12 11 12 13 12 12 12 8 11 12 14 15 14 12 10 10 10 10 8 8 8 9 10 12 12 12 11 10 13 15 14 13 9 9 9 10 9 8 6 6 5 6 10 11 11 11 11 11 11 11 10 9 7 4 4 6 6 5 4 4 3 3 4 4 3 3 2 3 4 5 5 3 4 1 3 4 3 3 4 6 8
14 13 12 12 13 11 12 13 10 10 10 7 9 11 12 14 13 10 10 10 10 10 9 9 8 8 7 9 13 12 12 10 15 16 16 14 11 11 11 11 12 12 9 9 8 8 6 6 5 7 6 6 6 6 7 8 6 3 2 3 5 4 4 4 4 4 2 3 5 4 3 3 4 4 5 4 2 2 2 3 3 3 3 3 3
Wind_Direction
208 207 208 211 211 213 215 213 210 213 213 215 217 218 220 223 224 227 230 238 241 241 245 248 250 249 252 258 258 259 260 257 256 254 257 260 257 238 202 229 248 252 255 259 259 261 261 260 261 261 261 259 257 255 254 254 256 258 260 263 265 268 269 271 271 259 246 243 243 246 249 249 250 250 245 244 244 242 242 245 245 246 252 253 252
208 210 210 213 215 216 220 219 214 213 215 220 218 222 224 224 229 231 234 237 243 243 247 249 248 249 252 258 257 258 259 257 256 258 255 254 250 248 196 216 234 247 252 255 256 259 260 260 260 260 261 261 259 258 258 260 260 261 263 264 266 266 264 265 269 274 272 254 245 243 243 245 246 249 250 245 246 249 247 244 243 244 246 248 247
208 207 211 213 216 219 221 218 218 217 220 224 223 225 228 232 230 232 236 239 243 245 244 247 249 254 253 254 259 262 260 260 260 258 259 259 262 262 231 197 219 233 243 248 253 255 256 256 257 258 259 259 259 259 259 259 261 264 265 266 266 266 268 267 264 264 269 272 265 251 246 244 244 245 247 249 248 246 246 248 251 251 246 245 246
214 211 215 215 218 220 221 222 223 223 225 228 228 227 232 236 238 241 244 245 248 248 245 250 254 255 254 257 258 258 259 260 261 260 260 261 257 259 251 225 203 220 230 239 244 248 252 253 255 257 257 258 259 260 261 262 262 262 263 264 265 267 267 266 266 265 263 262 266 268 258 249 247 245 245 246 247 247 246 246 247 247 245 243 244
213 215 215 218 219 221 224 223 224 226 229 232 235 235 235 237 239 240 244 244 248 249 250 253 256 258 260 261 263 265 264 263 262 259 259 254 260 259 256 250 243 204 217 229 235 242 247 251 254 256 257 260 260 261 262 262 263 263 264 264 264 264 265 265 265 262 259 258 258 259 262 264 259 253 249 246 245 244 243 242 241 243 244 244 243
215 212 214 217 221 222 224 224 226 226 228 231 233 234 236 236 239 239 240 243 243 245 248 252 251 256 262 266 266 267 268 265 263 260 257 254 248 256 262 257 248 251 225 214 227 234 241 248 252 254 257 259 261 262 263 263 263 263 264 265 265 268 267 266 266 264 262 262 260 258 258 259 261 262 260 256 253 249 247 244 240 240 242 244 245
213 215 214 216 220 222 223 226 225 225 225 227 229 231 234 235 231 234 239 240 242 244 246 250 256 259 256 255 261 263 262 264 265 266 261 264 266 256 248 250 251 253 247 255 214 219 231 239 246 251 254 258 261 262 263 264 263 263 264 264 264 264 266 266 268 270 269 267 264 263 262 262 262 264 264 263 260 256 254 251 247 242 242 243 245
214 215 217 216 219 221 221 221 221 222 222 223 223 228 228 231 232 234 238 240 241 244 245 250 250 253 260 263 261 261 262 266 267 262 259 260 265 253 248 248 249 247 255 258 267 245 211 227 238 247 251 257 259 261 262 262 262 261 262 262 263 263 264 264 264 266 267 267 267 266 264 265 266 265 263 262 261 260 256 254 254 252 248 245 245
214 216 218 219 219 221 220 216 219 220 219 218 219 222 225 227 231 230 235 244 241 242 248 249 252 256 262 262 262 263 263 266 268 268 266 263 258 253 250 251 247 246 251 253 259 261 215 211 228 237 248 252 255 258 260 261 260 260 260 262 262 262 264 266 265 263 264 267 272 273 274 273 269 265 264 264 262 260 260 258 254 252 252 252 250
215 215 218 220 220 220 221 219 219 219 219 217 219 218 220 223 227 227 229 236 241 240 240 244 253 260 263 263 262 261 265 266 267 267 262 258 256 254 252 253 248 246 245 251 252 255 262 206 212 230 239 245 247 253 257 259 260 260 261 261 261 263 263 263 265 268 268 265 263 266 269 269 271 272 271 271 272 271 268 265 264 261 257 254 253
216 216 218 218 220 220 219 216 216 217 218 218 220 218 216 219 223 224 223 229 233 234 241 249 254 258 259 261 264 265 268 266 268 262 252 254 259 259 260 256 257 247 251 245 246 252 248 264 247 232 225 220 238 242 250 255 259 262 263 263 264 264 264 266 267 268 270 273 275 274 273 274 273 273 272 273 272 271 270 270 271 270 267 263 259
216 215 216 218 219 219 218 214 214 212 212 213 215 216 214 214 218 221 225 227 232 240 242 245 255 263 271 270 264 264 263 261 259 254 253 255 254 253 248 242 239 240 235 237 243 244 248 248 246 244 253 209 212 232 238 247 253 259 262 265 266 265 266 266 266 267 268 269 272 274 275 275 275 276 275 275 276 276 275 273 272 271 270 269 265
215 214 216 215 217 217 216 215 213 210 209 211 211 215 216 215 217 217 222 224 227 226 234 240 257 274 268 269 268 257 252 246 252 251 246 246 243 238 231 233 232 232 216 223 234 237 248 245 246 249 246 263 211 212 231 241 247 250 256 261 265 268 270 269 269 270 272 273 275 277 278 279 281 282 282 281 281 281 280 278 278 277 277 276 274
213 218 219 218 216 215 213 212 209 210 209 208 209 213 213 213 211 216 214 221 230 216 212 187 236 250 284 290 282 265 246 239 238 237 237 233 232 219 215 225 231 216 207 223 223 231 235 240 241 247 255 253 263 265 223 221 228 230 246 255 263 270 273 273 273 273 274 277 282 284 283 284 284 285 286 285 283 282 281 280 282 282 281 281 282
211 205 213 219 221 219 217 213 211 203 202 211 211 211 211 208 203 203 210 215 227 222 205 189 239 230 250 296 282 298 159 203 209 222 212 224 211 208 207 224 214 209 214 209 218 216 223 232 238 245 251 253 258 254 254 258 265 249 244 256 264 271 276 277 278 280 281 281 282 281 281 281 281 279 280 281 281 281 281 281 279 278 276 276 276
216 206 204 209 213 218 220 219 215 203 206 212 212 212 211 208 204 209 214 221 210 220 207 201 210 234 255 225 269 344 284 185 214 188 211 220 209 206 188 193 193 202 202 220 233 231 215 216 230 241 242 246 248 247 259 270 262 238 250 257 261 267 272 276 282 286 283 281 277 275 275 276 277 276 277 276 276 276 276 277 276 278 280 280 280
211 210 199 203 210 213 216 220 217 207 204 213 215 211 209 212 207 205 210 222 227 212 210 207 212 225 239 224 211 227 229 59 306 181 153 159 181 173 172 188 187 184 206 236 235 229 224 223 235 243 244 245 242 247 256 258 255 251 250 237 247 256 264 269 274 277 277 276 273 275 276 277 278 280 280 281 281 280 279 278 280 282 283 283 283
205 209 205 201 210 211 213 213 214 210 202 211 217 214 212 212 210 212 217 216 228 238 229 201 216 224 233 240 270 300 337 136 297 221 175 191 197 205 204 204 189 190 224 236 218 219 217 240 246 248 248 245 247 250 252 249 247 252 255 253 237 251 262 268 268 267 268 268 272 273 275 277 281 283 283 284 285 287 287 287 287 288 290 292 291
209 204 202 195 206 207 211 213 214 213 209 210 214 217 217 214 210 214 219 216 213 234 240 222 208 229 230 237 249 258 266 280 267 292 270 157 174 170 180 184 199 225 239 238 217 217 236 242 243 246 248 248 250 252 252 251 245 242 257 262 258 259 263 267 266 263 266 269 273 276 278 281 284 288 289 289 289 288 288 288 289 291 292 293 294
218 214 206 201 201 204 205 208 212 213 207 210 216 217 218 212 206 213 213 214 211 224 230 231 197 215 214 229 236 244 251 254 254 263 284 284 205 185 190 209 237 254 255 230 219 242 257 251 240 245 249 249 252 251 252 256 259 249 244 230 246 256 267 271 272 271 269 271 273 278 280 283 286 289 290 292 292 291 290 291 292 293 295 296 297
211 213 219 209 201 205 209 214 214 219 213 221 221 219 218 221 215 211 209 212 216 223 227 229 221 214 196 219 227 232 237 239 244 238 239 246 257 241 244 219 238 247 230 231 250 253 257 253 250 253 256 260 256 250 249 253 252 248 257 232 245 250 257 266 274 274 277 279 282 283 285 288 290 293 294 294 294 291 291 290 292 295 296 297 295
216 210 218 219 209 209 213 215 215 216 212 221 221 217 214 218 223 219 212 213 216 218 222 225 228 227 216 211 209 220 228 234 230 228 235 235 251 250 237 247 256 237 243 248 244 252 251 244 243 245 248 252 249 243 240 242 246 251 251 231 246 257 259 266 271 276 278 279 278 279 282 282 284 288 293 296 297 296 294 290 289 288 288 288 287
225 218 220 220 216 207 209 215 217 214 214 217 219 220 213 215 218 214 215 212 213 219 219 221 225 227 221 217 217 213 210 212 215 216 216 223 232 248 254 256 259 274 259 253 258 254 251 249 248 247 252 245 242 238 235 236 231 238 254 272 272 267 267 270 271 272 271 270 272 276 279 283 287 296 298 297 296 299 302 305 303 299 297 297 297
228 226 220 221 220 217 214 215 215 219 223 223 224 222 223 220 220 214 216 210 212 213 219 219 221 226 225 221 223 222 219 219 220 214 215 225 228 245 245 242 249 254 268 271 265 258 249 246 240 246 244 242 235 239 237 237 235 225 240 251 253 258 269 272 275 278 277 278 282 283 284 288 293 309 312 312 313 312 310 305 308 308 305 303 306
225 227 228 220 215 221 219 213 217 217 223 222 223 222 221 216 216 219 219 216 214 213 215 218 215 218 222 224 224 225 226 225 225 225 225 229 231 242 245 242 247 260 265 270 269 266 255 237 235 225 228 226 230 231 232 235 246 224 201 260 239 251 252 263 272 277 282 287 296 299 301 300 299 313 326 325 324 321 318 311 307 305 301 303 305
226 227 223 199 216 221 224 222 223 226 222 224 223 217 219 219 218 218 216 221 219 216 221 220 218 218 220 222 224 226 227 227 227 224 222 220 224 229 241 244 241 252 260 259 259 269 251 223 220 213 214 221 220 222 224 218 226 224 236 251 256 238 243 254 264 275 287 305 314 313 312 312 313 322 327 327 324 320 318 312 305 299 300 305 307
218 227 224 214 216 221 224 225 223 226 225 221 218 216 214 217 220 221 222 222 218 213 222 220 219 218 218 220 224 226 227 225 223 224 222 221 221 223 224 235 246 241 249 246 248 236 247 212 208 220 222 218 215 212 214 217 218 226 245 225 251 246 244 252 267 280 300 312 314 314 313 312 313 317 318 318 317 316 317 316 315 316 318 318 318
227 214 187 197 212 216 225 226 226 225 225 224 223 218 214 216 221 218 221 217 218 214 220 220 223 222 220 222 222 225 224 223 222 222 222 222 221 225 223 226 231 251 238 251 237 241 222 235 212 212 216 216 211 211 199 208 229 219 235 249 261 265 233 249 266 289 307 311 310 311 310 310 312 316 320 322 321 323 328 329 328 326 322 322 325
223 207 208 201 205 209 220 228 226 224 224 224 222 220 218 216 219 218 220 218 217 220 220 220 224 223 223 220 221 223 224 222 222 221 222 220 219 220 219 217 217 232 245 255 231 237 191 205 226 186 208 204 207 210 206 215 217 222 252 255 266 281 287 287 295 307 303 299 300 301 302 306 320 330 339 345 341 339 341 336 330 330 331 331 335
221 227 221 207 204 207 219 230 227 225 224 223 220 219 217 217 218 218 218 217 218 221 222 219 222 221 221 221 221 224 224 221 221 220 220 220 213 215 218 215 210 219 226 242 255 237 227 193 215 215 184 202 211 207 208 215 211 202 235 249 254 268 276 283 288 275 279 278 282 285 298 322 348 358 360 359 353 346 342 341 343 342 338 340 351
239 230 220 214 201 205 212 228 229 226 224 223 221 219 217 218 218 218 217 215 215 217 219 218 221 220 222 222 221 225 223 223 222 219 219 219 220 213 216 214 211 216 227 234 250 249 233 234 225 225 220 198 202 213 205 219 196 183 224 238 245 250 274 283 271 256 244 260 269 288 303 2 12 8 11 10 6 4 354 353 351 348 355 3 357
239 230 221 212 210 210 215 209 216 226 225 226 220 220 218 219 217 216 215 212 214 218 219 218 218 218 222 223 222 223 222 222 220 218 218 212 213 215 214 214 217 214 217 224 235 251 238 252 255 254 243 231 209 224 240 222 175 176 228 234 233 152 246 261 228 230 225 226 231 297 21 29 26 27 24 19 21 26 19 20 11 18 19 12 10
235 233 222 221 215 209 207 210 217 218 215 217 219 220 219 219 218 216 214 212 213 216 218 219 218 219 221 224 226 223 221 221 222 220 213 208 207 209 207 212 211 208 208 217 231 243 259 256 262 261 258 258 255 238 236 240 223 189 209 236 229 237 261 271 260 157 209 233 220 66 67 51 46 42 38 34 36 35 28 27 24 26 24 20 25
245 244 241 228 222 221 222 217 219 217 214 214 215 219 219 221 219 214 215 213 212 214 214 219 219 220 220 223 225 222 219 224 222 218 215 208 207 204 205 201 205 208 202 213 225 229 247 259 258 254 256 247 256 250 249 241 239 207 187 205 211 227 254 263 251 178 176 339 61 90 79 73 67 58 44 36 37 34 32 32 31 28 23 22 27
253 243 245 238 229 219 218 221 220 215 213 208 206 216 220 221 219 215 214 212 212 212 213 216 216 216 218 219 223 221 216 219 217 217 214 215 209 209 207 203 207 210 209 208 215 225 233 248 254 261 256 251 247 251 236 234 240 223 229 237 256 237 204 231 241 207 111 116 105 89 82 77 71 62 52 47 41 44 46 40 36 30 30 34 36
257 250 243 241 236 223 221 224 230 219 214 210 210 220 224 223 220 218 216 215 214 213 213 214 215 215 216 217 220 217 216 217 218 216 213 209 206 205 207 206 206 209 211 208 212 225 223 238 231 243 255 254 250 241 234 224 235 231 232 253 229 214 195 189 217 190 104 109 99 88 87 78 73 68 61 53 49 50 47 48 45 42 41 43 44
260 255 246 233 235 235 237 238 234 230 218 218 222 223 222 223 223 221 218 217 217 216 215 216 215 214 215 216 216 214 216 218 216 214 208 209 205 204 207 206 207 210 210 207 214 217 228 232 236 237 247 255 259 270 254 246 233 218 172 214 237 223 221 209 153 109 129 123 107 109 97 88 85 79 67 62 56 50 49 43 41 40 41 42 43
269 260 256 241 229 230 238 239 234 233 233 228 225 223 222 221 221 221 220 218 218 217 216 216 215 213 217 219 218 215 213 212 212 207 208 210 207 206 205 207 208 206 205 205 205 210 223 234 238 244 217 234 246 243 213 209 231 255 255 230 173 178 195 205 161 131 122 162 168 142 134 108 94 79 73 66 64 60 50 49 45 43 40 41 39
281 273 264 257 247 236 235 235 234 233 231 228 226 223 224 221 220 219 220 220 219 217 216 214 215 218 219 219 216 212 211 206 206 205 206 206 204 207 205 206 207 205 205 207 206 212 217 224 224 222 235 231 231 247 237 90 253 256 255 262 260 211 149 203 192 156 151 114 83 88 89 87 98 94 86 77 69 70 71 55 46 38 37 38 38
283 276 271 265 257 248 241 237 236 231 228 231 231 226 222 220 218 219 219 218 218 216 215 213 215 219 220 218 216 214 212 208 204 207 205 207 203 207 207 207 205 201 205 201 201 204 211 219 227 228 224 221 199 224 76 97 213 295 170 213 237 240 216 118 78 159 134 244 165 139 138 131 120 121 115 92 67 59 48 83 56 41 34 38 40
290 283 278 271 262 254 245 240 239 234 229 228 225 222 221 220 220 219 219 216 215 214 214 210 212 214 214 215 214 213 209 209 206 206 207 204 203 205 205 203 202 202 203 205 213 213 213 216 222 212 212 216 218 211 215 203 206 217 208 194 222 229 163 144 136 103 103 259 174 126 69 46 82 76 64 86 58 56 82 58 74 61 35 38 35
295 288 283 275 266 257 250 241 236 233 230 228 224 216 215 218 217 218 216 215 212 211 212 214 214 213 213 212 213 211 205 203 201 202 204 205 206 213 213 204 200 200 203 205 209 208 214 214 220 211 213 215 211 207 217 206 210 193 116 181 204 212 167 201 137 112 25 274 216 148 94 53 66 78 52 53 70 46 56 62 38 29 35 33 30
296 291 282 274 264 258 252 244 233 227 228 228 221 213 213 213 213 215 213 211 209 209 212 212 213 211 212 212 213 204 200 197 200 201 202 202 201 203 205 207 202 199 203 209 214 207 205 213 212 217 222 221 207 198 212 220 200 208 200 189 206 162 191 189 212 123 324 264 213 185 126 95 160 131 85 83 66 59 64 60 34 35 34 31 31
288 285 279 272 270 264 257 249 242 235 232 231 222 214 214 215 212 216 215 213 209 209 210 212 213 209 208 208 208 194 194 199 195 197 202 204 202 202 202 201 202 206 210 212 213 206 204 210 213 209 211 222 218 198 204 179 199 204 211 197 189 185 184 201 224 214 116 236 226 171 117 110 116 127 114 86 84 77 61 42 38 37 38 38 38
298 288 277 273 267 262 256 251 246 241 239 232 222 219 219 217 216 215 219 214 211 211 210 209 210 207 203 200 202 196 192 185 184 184 175 182 191 193 190 189 195 218 238 241 242 242 217 209 214 207 201 206 213 214 195 191 173 186 172 187 198 198 192 200 182 136 140 119 193 166 153 85 115 142 120 98 92 82 69 48 43 45 46 45 45
313 299 288 279 274 265 256 250 249 246 240 235 220 220 219 216 215 211 222 218 212 211 209 207 205 203 197 197 195 194 177 171 179 170 173 177 164 162 160 179 174 92 102 161 182 185 219 214 214 226 216 191 212 208 193 155 170 187 181 198 190 189 184 156 96 110 86 295 211 120 172 130 91 148 112 99 89 74 64 51 52 52 50 49 49
313 311 307 300 285 271 265 257 254 250 244 231 216 216 217 213 210 206 217 218 210 210 205 201 197 195 190 194 195 199 175 172 188 180 173 165 161 167 170 173 132 158 168 166 167 171 184 211 219 228 127 158 151 123 144 171 193 179 174 170 164 142 108 102 76 80 76 53 122 183 202 112 174 136 115 117 101 84 79 60 52 53 52 51 51
305 297 290 279 282 279 270 262 255 252 253 231 215 219 215 211 199 196 206 204 193 186 182 181 182 187 190 188 192 195 189 190 185 176 174 170 172 175 174 142 142 135 117 58 161 163 153 147 145 136 141 133 127 141 150 141 119 110 86 82 83 107 127 148 164 161 139 105 90 203 169 139 108 133 121 118 112 92 68 82 58 50 54 53 50
313 311 307 296 291 286 280 267 257 256 257 228 212 215 210 199 188 198 195 195 195 193 197 192 189 190 192 191 193 197 193 195 178 177 174 170 180 181 177 159 163 153 142 110 91 107 116 111 108 108 110 107 107 106 103 111 128 131 124 118 148 154 160 175 154 166 183 149 90 153 164 133 135 134 133 122 103 91 78 71 70 56 57 56 51
307 306 306 302 293 284 277 271 260 261 261 238 208 213 205 193 190 193 193 195 196 193 192 186 189 192 195 185 192 197 197 194 171 181 175 174 184 188 188 168 165 173 159 147 124 90 86 88 89 91 93 99 96 91 96 110 120 157 158 184 167 167 186 196 182 167 158 157 155 163 160 125 130 143 135 128 103 101 97 87 70 71 73 75 58
300 299 299 296 293 284 277 268 269 259 263 249 203 215 208 198 195 199 198 198 196 197 189 190 190 190 188 184 191 195 200 183 173 183 180 184 198 197 196 180 179 193 179 158 146 139 138 124 112 111 96 92 88 88 82 81 71 52 17 84 143 176 194 191 137 126 140 216 162 181 160 142 139 147 147 145 163 136 124 106 82 55 45 39 45